Location: Briis
(48.6240°N, 2.1211°E)
Time: 01:36:16
(UTC+00:00)

IRIDIUM 106 - Pass Details

Date: 25 September 2020
Orbit: 776 x 779 km, 86.4° (Epoch: 23 October)

Event Time Altitude Azimuth Distance (km) Brightness Sun altitude
Rises 03:40:33 0° 353° (N) 3,273 7.8 -20.5°
Reaches altitude 10° 03:42:56 10° 350° (N) 2,340 6.9 -20.1°
Maximum altitude 03:48:05 60° 271° (W) 890 4.3 -19.4°
Enters shadow 03:51:54 18° 196° (SSW) 1,837 5.9 -18.8°
